Weather Roundup
Issued by NWS Chicago, IL

Home | Current Version | Previous Version | Text Only | Print | Product List | Glossary On
Versions: 1 2 3 4 5 6 7 8 9 10 11 12 13 14 15 16 17 18 19 20 21 22 23 24 25 26 27 28 29 30 31 32 33 34 35 36 37 38 39 40 41 42 43 44 45 46 47 48 49 50
000
NZUS59 KLOT 301421
HRRLOT

CHICAGO AREA WEATHER ROUNDUP
NATIONAL WEATHER SERVICE CHICAGO/ROMEOVILLE IL
900 AM CDT TUE JUN 30 2015

NOTE: "FAIR" INDICATES FEW OR NO CLOUDS BELOW 12,000 FEET WITH NO
SIGNIFICANT WEATHER AND/OR OBSTRUCTIONS TO VISIBILITY.

* THESE STATIONS ARE NOT UNDER NWS QUALITY CONTROL. THEY ALSO MAY NOT
  REPORT WEATHER SUCH AS PRECIPITATION OR FOG.

ILZ005-006-012>014-019>023-301500-
NORTHEAST ILLINOIS

CITY           SKY/WX    TMP DP  RH WIND       PRES   REMARKS
OHARE          MOSUNNY   66  59  78 NW8       29.82R
MIDWAY         MOSUNNY   70  61  73 NW7       29.82R
AURORA         MOSUNNY   67  60  78 NW6       29.84R
LANSING*       SUNNY     69  60  74 W6        29.83S
JOLIET*        MOSUNNY   69  63  81 W5        29.84S
WAUKEGAN       SUNNY     67  60  78 W7        29.81R
DUPAGE AIRPORT SUNNY     67  60  78 NW6       29.83R
WHEELING       MOSUNNY   68  59  73 NW3       29.83R
KANKAKEE*      SUNNY     69  64  83 CALM      29.85R
MORRIS*        SUNNY     67  62  84 NW7       29.83R
LEWIS AIRPORT* MOSUNNY   67  62  83 NW7       29.84S
NORTHERLY IS     N/A     69  60  73 W8          N/A
$$

WIZ051-052-058>065-066-070>072-301500-
SOUTHEAST WISCONSIN

CITY           SKY/WX    TMP DP  RH WIND       PRES   REMARKS
MILWAUKEE      CLOUDY    64  58  80 NW9       29.81R
KENOSHA*       SUNNY     67  60  78 NW7       29.82R
RACINE*        PTSUNNY   66  59  78 NW8       29.83R
BURLINGTON     PTSUNNY   62  59  90 NW9       29.83R
WAUKESHA       CLOUDY    61  59  94 NW6       29.84R FOG
WEST BEND      CLOUDY    63  59  88 NW10      29.82R
$$

INZ001>003-010>013-019-020-301500-
NORTHWEST INDIANA

CITY           SKY/WX    TMP DP  RH WIND       PRES   REMARKS
GARY*          SUNNY    N/A N/A N/A W8        29.83R
MICHIGAN CITY* NOT AVBL
RENSSELAER*    NOT AVBL
VALPARAISO     CLOUDY    67  62  84 W9        29.83R
$$

LMZ740>746-301500-
SOUTHERN LAKE MICHIGAN

STATION/POSITION TIME  SKY/WX   TEMP WIND        PRES    VSBY
                                AIR  DIR/SP/G
                 (UTC)          (F)  (DEG/KT/KT) (MB)    (MI)
HARRISON CRIB    1400            66  290/  6/  7   N/A
BURNHAM HARBOR   1400            68  270/  6/  7   N/A
CALUMET HARBOR   1400            70  300/  4/  7   N/A
BURNS HARBOR     1300            65  270/  8/  9 1010.2R
MICHIGAN CITY    1400            63  250/  9/ 10   N/A
$$

ABBREVIATIONS USED IN REMARKS
   TC - TEMPERATURE IN CELSIUS
  WCI - WIND CHILL INDEX
   HX - HEAT INDEX
  VSB - VISIBILITY
$$


USA.gov is the U.S. government's official web portal to all federal, state and local government web resources and services.